#timestamp,LO_Frequency,Hit,StdDev 
1640894415.9,286047000.6,N
1640894435.7,286047000.1,N
1640894455.6,286047002.8,N
1640894475.4,286047002.2,N
1640894495.3,286046999.8,N
1640894515.1,286047002.0,N
1640894516.0,286047002.0,N
1640894535.8,286047002.5,N
1640894555.7,286047002.7,N
1640894575.5,286046998.6,N
1640894595.3,286046999.4,N
1640894615.2,286046999.9,N
1640894635.0,286047002.5,N
1640894635.9,286047002.5,N
1640894655.8,286047000.0,N
1640894675.6,286047001.1,N
1640894695.4,286046999.7,N
1640894715.3,286047002.8,N
1640894735.1,286047002.5,N
1640894755.9,286047002.2,N
1640894775.7,286047004.1,N
1640894795.5,286047003.6,N
1640894815.4,286047001.7,N
1640894835.2,286047002.7,N
1640894855.1,286047000.0,N
1640894856.0,286047000.0,N
1640894875.8,286047000.5,N
1640894895.6,286047002.6,N
1640894915.5,286047001.5,N
1640894935.3,286047002.3,N
1640894955.1,286047004.4,Y
1640894975.9,286047002.2,P
1640894995.7,286047000.8,N
1640895015.6,286046998.5,N
1640895035.4,286047001.0,N
1640895055.2,286047001.0,N
1640895075.1,286046996.7,N
1640895076.0,286046996.7,N
1640895095.8,286046997.7,N
1640895115.6,286046998.3,N
1640895135.5,286047001.1,N
1640895155.3,286047000.2,N
1640895175.2,286046999.7,N
1640895195.9,286047004.2,N
1640895215.7,286047003.7,N
1640895235.6,286046999.9,N
1640895255.4,286046999.9,N
1640895275.2,286046999.9,N
1640895295.1,286047000.3,N
1640895296.0,286047000.3,N
1640895315.8,286047002.7,N
1640895335.7,286047000.3,N
1640895355.5,286047000.1,N
1640895375.3,286047001.5,N
1640895395.2,286047001.5,N
1640895415.0,286047002.3,N
1640895415.9,286047002.3,N
1640895435.8,286047001.6,N
1640895455.6,286047002.8,N
1640895475.4,286047002.0,N
1640895495.3,286047002.0,N
1640895515.1,286047000.3,N
1640895516.0,286047000.3,N
1640895535.8,286047002.1,N
1640895555.7,286047001.6,N
1640895575.5,286047002.0,N
1640895595.4,286047002.7,N
1640895615.2,286047002.8,N
1640895635.0,286047000.2,N
1640895635.9,286047000.2,N
1640895655.8,286047000.4,N
1640895675.6,286047002.0,N
1640895695.4,286047001.3,N
1640895715.3,286047001.5,N
1640895735.1,286047000.3,N
1640895755.9,286047000.6,N
1640895775.7,286047000.0,N
1640895795.5,286047000.3,N
1640895815.4,286046999.9,N
1640895835.2,286047002.8,N
1640895855.0,286047002.5,N
1640895855.9,286047002.5,N
1640895875.8,286047000.6,N
1640895895.6,286047000.9,N
1640895915.5,286046998.8,N
1640895935.3,286046999.0,N
1640895955.1,286046998.3,N
1640895975.9,286046998.6,N
1640895995.7,286046998.8,N
1640896015.5,286047000.4,N
1640896035.4,286046998.5,N
1640896055.2,286046998.5,N
1640896075.1,286046998.5,N
1640896076.0,286046998.5,N
1640896095.8,286047000.4,N
1640896115.6,286047000.5,N
1640896135.5,286047001.2,N
1640896155.3,286047000.2,N
1640896175.2,286047000.1,N
1640896195.9,286047001.5,N
1640896215.7,286047004.4,Y
1640896235.6,286047003.8,P
1640896255.4,286047003.9,N
1640896275.3,286047001.5,N
1640896295.1,286047004.2,N
1640896296.0,286047004.2,N
1640896315.8,286047002.4,N
1640896335.7,286046999.8,N
1640896355.5,286047002.0,N
1640896375.4,286047001.7,N
1640896395.2,286047004.3,N
1640896415.0,286047001.3,N
1640896415.9,286047001.3,N
1640896435.8,286047004.3,N
1640896455.6,286047001.4,N
1640896475.4,286047003.8,N
1640896495.3,286047003.5,N
1640896515.1,286047004.3,N
1640896535.9,286047003.2,N
1640896555.7,286047003.8,N
1640896575.5,286047005.5,Y
1640896595.4,286047002.3,P
1640896615.2,286046999.8,N
1640896635.1,286047002.2,N
1640896636.0,286047002.2,N
1640896655.8,286047001.3,N
1640896675.6,286047002.5,N
1640896695.5,286047002.4,N
1640896715.3,286047000.9,N
1640896735.1,286047000.7,N
1640896755.9,286047002.4,N
1640896775.7,286047002.8,Y
1640896795.6,286047001.1,P
1640896815.4,286046998.7,P
1640896835.2,286046999.9,N
1640896855.1,286047001.0,N
1640896856.0,286047001.0,N
1640896875.8,286046999.4,N
1640896895.7,286046998.8,N
1640896915.5,286046998.1,N
1640896935.3,286047002.3,N
1640896955.2,286046999.8,N
1640896975.0,286047000.6,N
1640896975.9,286047000.6,N
1640896995.8,286047000.1,N
1640897015.6,286047001.2,N
1640897035.4,286047000.3,N
1640897055.3,286047002.8,N
1640897075.1,286047004.3,Y
1640897095.9,286047001.8,P
1640897115.7,286047004.0,P
1640897135.5,286047002.5,N
1640897155.4,286047000.6,N
1640897175.2,286047002.1,N
1640897195.1,286047002.0,N
1640897196.0,286047002.0,N
1640897215.8,286047000.5,N
1640897235.6,286047000.7,N
1640897255.5,286046998.5,N
1640897275.3,286046999.1,N
1640897295.1,286046997.1,N
1640897315.9,286046996.9,N
1640897335.7,286046999.0,N
1640897355.6,286046999.0,N
1640897375.4,286046998.1,N
1640897395.2,286046998.7,N
1640897415.1,286046999.6,N
1640897416.0,286046999.6,N
1640897435.8,286046997.2,N
1640897455.7,286046996.6,N
1640897475.5,286046999.0,N
1640897495.3,286046998.4,N
1640897515.2,286047000.6,N
1640897535.9,286046998.6,N
1640897555.7,286046998.8,N
1640897575.6,286046998.1,N
1640897595.4,286046999.2,N
1640897615.3,286046997.0,N
1640897635.1,286046998.9,N
1640897636.0,286046998.9,N
1640897655.8,286046999.6,N
1640897675.7,286046998.2,N
1640897695.5,286046997.3,N
1640897715.3,286046996.1,N
1640897735.2,286046994.6,Y
1640897755.0,286046996.0,P
1640897755.9,286046996.0,N
1640897775.8,286046994.9,P
1640897795.6,286046997.5,N
1640897815.4,286046995.0,Y
1640897835.3,286047001.0,P
1640897855.1,286046999.8,N
1640897875.9,286047001.5,N
1640897895.7,286047001.7,N
1640897915.5,286047002.4,N
1640897935.4,286047000.6,N
1640897955.2,286047000.3,N
1640897975.0,286047002.7,N
1640897975.9,286047002.7,N
1640897995.8,286047004.1,N
